ATI807 KSAN-KSFO

Flight info

Callsign ATI807
Flight time 0h 59m
Altitude FL320
Route PADRZ2 IKAYE RIZIN SPLNT STOKD SERFR SERFR4
Aircraft B763/M-SABDE1E2FGIJ1J3J4J5J6J7M2M3P1P2RTUVW/NACEHB1B2U1V1V2D1G1

Departure

Time 2026-05-05 00:37
Airport San Diego International Airport (KSAN)

Arrival

Time 2026-05-05 01:36
Airport San Francisco International Airport (KSFO)
Time Latitude Longitude Altitude Speed Heading
2026-05-05 00:19 32.73166 -117.19341 28 ft 0 kts 262°
2026-05-05 00:25 32.73167 -117.19332 28 ft 0 kts 262°
2026-05-05 00:25 32.73169 -117.19316 28 ft 0 kts 262°
2026-05-05 00:26 32.73169 -117.19301 28 ft 0 kts 287°
2026-05-05 00:26 32.73161 -117.19288 28 ft 0 kts 330°
2026-05-05 00:26 32.73168 -117.19291 28 ft 0 kts 359°
2026-05-05 00:26 32.73178 -117.19288 28 ft 0 kts 30°
2026-05-05 00:27 32.73178 -117.19287 28 ft 0 kts 30°
2026-05-05 00:28 32.73185 -117.19282 28 ft 3 kts 30°
2026-05-05 00:28 32.73214 -117.19262 28 ft 7 kts 30°
2026-05-05 00:28 32.73266 -117.19227 28 ft 11 kts 29°
2026-05-05 00:29 32.73297 -117.19169 28 ft 9 kts 97°
2026-05-05 00:29 32.73279 -117.19083 28 ft 12 kts 105°
2026-05-05 00:29 32.73254 -117.18976 28 ft 15 kts 106°
2026-05-05 00:29 32.73225 -117.18855 28 ft 16 kts 105°
2026-05-05 00:30 32.73194 -117.18728 28 ft 16 kts 106°
2026-05-05 00:30 32.73166 -117.18616 28 ft 14 kts 107°
2026-05-05 00:30 32.73136 -117.18493 28 ft 17 kts 105°
2026-05-05 00:30 32.73106 -117.18365 28 ft 15 kts 106°
2026-05-05 00:31 32.73074 -117.18234 28 ft 17 kts 106°
2026-05-05 00:31 32.73043 -117.18107 28 ft 16 kts 106°
2026-05-05 00:31 32.73016 -117.17994 28 ft 12 kts 105°
2026-05-05 00:31 32.72992 -117.17894 28 ft 14 kts 106°
2026-05-05 00:32 32.72968 -117.17799 28 ft 10 kts 106°
2026-05-05 00:32 32.72952 -117.17722 28 ft 9 kts 96°
2026-05-05 00:32 32.72955 -117.17681 28 ft 0 kts 80°
2026-05-05 00:33 32.72955 -117.17680 28 ft 0 kts 80°
2026-05-05 00:34 32.72955 -117.17679 28 ft 0 kts 80°
2026-05-05 00:35 32.72955 -117.17678 28 ft 0 kts 80°
2026-05-05 00:35 32.72957 -117.17669 28 ft 3 kts 79°
2026-05-05 00:35 32.72968 -117.17617 28 ft 9 kts 63°
2026-05-05 00:35 32.73028 -117.17617 28 ft 11 kts 306°
2026-05-05 00:36 32.73041 -117.17672 28 ft 7 kts 285°
2026-05-05 00:36 32.73091 -117.17881 28 ft 63 kts 286°
2026-05-05 00:36 32.73290 -117.18700 28 ft 142 kts 287°
2026-05-05 00:36 32.73633 -117.20075 186 ft 199 kts 285°
2026-05-05 00:37 32.74078 -117.21773 512 ft 220 kts 286°
2026-05-05 00:37 32.74621 -117.23463 1052 ft 223 kts 294°
2026-05-05 00:37 32.75456 -117.25023 1715 ft 225 kts 303°
2026-05-05 00:37 32.76418 -117.26500 2380 ft 232 kts 306°
2026-05-05 00:38 32.77457 -117.28032 3011 ft 241 kts 307°
2026-05-05 00:38 32.78540 -117.29623 3635 ft 254 kts 307°
2026-05-05 00:38 32.79656 -117.31282 4447 ft 259 kts 307°
2026-05-05 00:38 32.80773 -117.32975 5357 ft 261 kts 307°
2026-05-05 00:39 32.81897 -117.34681 6276 ft 263 kts 306°
2026-05-05 00:39 32.83016 -117.36402 7174 ft 265 kts 305°
2026-05-05 00:39 32.84127 -117.38158 8053 ft 267 kts 304°
2026-05-05 00:39 32.85251 -117.39939 8926 ft 270 kts 304°
2026-05-05 00:40 32.86378 -117.41728 9788 ft 273 kts 303°
2026-05-05 00:40 32.87535 -117.43563 10506 ft 284 kts 303°
2026-05-05 00:40 32.88761 -117.45520 10815 ft 308 kts 303°
2026-05-05 00:40 32.90094 -117.47652 11039 ft 334 kts 303°
2026-05-05 00:41 32.91541 -117.49928 11441 ft 354 kts 304°
2026-05-05 00:41 32.93075 -117.52281 12123 ft 364 kts 305°
2026-05-05 00:41 32.94648 -117.54665 12971 ft 369 kts 305°
2026-05-05 00:41 32.96242 -117.57090 13788 ft 376 kts 308°
2026-05-05 00:42 32.97865 -117.59582 14493 ft 383 kts 304°
2026-05-05 00:42 32.99499 -117.62117 15113 ft 395 kts 307°
2026-05-05 00:42 33.01176 -117.64733 15939 ft 397 kts 303°
2026-05-05 00:42 33.02845 -117.67347 16945 ft 395 kts 303°
2026-05-05 00:43 33.04506 -117.69936 17939 ft 393 kts 303°
2026-05-05 00:43 33.06156 -117.72532 18807 ft 395 kts 303°
2026-05-05 00:43 33.08017 -117.74958 19601 ft 402 kts 310°
2026-05-05 00:43 33.10153 -117.77168 20355 ft 409 kts 314°
2026-05-05 00:44 33.12377 -117.79285 21077 ft 413 kts 314°
2026-05-05 00:44 33.14651 -117.81422 21774 ft 417 kts 313°
2026-05-05 00:44 33.16903 -117.83603 22446 ft 419 kts 311°
2026-05-05 00:44 33.19122 -117.85884 23081 ft 421 kts 309°
2026-05-05 00:45 33.21270 -117.88273 23634 ft 424 kts 306°
2026-05-05 00:45 33.23326 -117.90802 24137 ft 428 kts 309°
2026-05-05 00:45 33.25216 -117.93605 24448 ft 439 kts 306°
2026-05-05 00:45 33.26927 -117.96718 24425 ft 459 kts 301°
2026-05-05 00:46 33.28483 -118.00131 24289 ft 480 kts 296°
2026-05-05 00:46 33.29987 -118.03781 24434 ft 493 kts 298°
2026-05-05 00:46 33.32045 -118.07020 25396 ft 487 kts 314°
2026-05-05 00:46 33.34709 -118.09439 26555 ft 478 kts 329°
2026-05-05 00:47 33.37745 -118.11018 27413 ft 476 kts 339°
2026-05-05 00:47 33.40788 -118.12527 28034 ft 475 kts 329°
2026-05-05 00:47 33.43534 -118.14688 28380 ft 468 kts 310°
2026-05-05 00:47 33.45925 -118.17257 28819 ft 463 kts 304°
2026-05-05 00:48 33.48207 -118.20021 29153 ft 467 kts 303°
2026-05-05 00:48 33.50454 -118.22845 29477 ft 472 kts 302°
2026-05-05 00:48 33.52708 -118.25718 29806 ft 477 kts 306°
2026-05-05 00:48 33.54987 -118.28638 30116 ft 482 kts 307°
2026-05-05 00:49 33.57297 -118.31573 30420 ft 487 kts 311°
2026-05-05 00:49 33.59648 -118.34487 30898 ft 485 kts 314°
2026-05-05 00:49 33.61998 -118.37354 31471 ft 478 kts 306°
2026-05-05 00:49 33.64340 -118.40208 31715 ft 483 kts 301°
2026-05-05 00:50 33.66687 -118.43083 31854 ft 486 kts 301°
2026-05-05 00:50 33.71465 -118.48831 31925 ft 485 kts 302°
2026-05-05 00:51 33.76238 -118.54498 31935 ft 483 kts 302°
2026-05-05 00:51 33.80997 -118.60228 31935 ft 484 kts 303°
2026-05-05 00:52 33.85700 -118.65995 31965 ft 484 kts 302°
2026-05-05 00:52 33.88007 -118.68834 31971 ft 464 kts 307°
2026-05-05 00:52 33.90229 -118.71541 31976 ft 449 kts 306°
2026-05-05 00:53 33.94690 -118.76988 31973 ft 467 kts 302°
2026-05-05 00:53 33.99286 -118.82687 32003 ft 480 kts 302°
2026-05-05 00:54 34.03983 -118.88461 32014 ft 484 kts 303°
2026-05-05 00:54 34.08748 -118.94198 32012 ft 485 kts 303°
2026-05-05 00:55 34.13503 -118.99959 32005 ft 482 kts 302°
2026-05-05 00:55 34.15630 -119.02994 31995 ft 465 kts 296°
2026-05-05 00:55 34.17419 -119.06116 31985 ft 438 kts 296°
2026-05-05 00:56 34.20483 -119.12467 31971 ft 446 kts 288°
2026-05-05 00:56 34.23600 -119.19093 31970 ft 459 kts 289°
2026-05-05 00:57 34.26940 -119.25786 31971 ft 477 kts 293°
2026-05-05 00:57 34.30452 -119.32461 31983 ft 453 kts 292°
2026-05-05 00:58 34.33788 -119.38806 31983 ft 452 kts 291°
2026-05-05 00:58 34.37145 -119.45351 31978 ft 460 kts 291°
2026-05-05 00:58 34.38770 -119.48562 31970 ft 438 kts 294°
2026-05-05 00:59 34.40372 -119.51730 31968 ft 445 kts 290°
2026-05-05 00:59 34.42164 -119.54848 31973 ft 464 kts 297°
2026-05-05 00:59 34.44330 -119.57829 31990 ft 478 kts 302°
2026-05-05 01:00 34.49103 -119.63585 32016 ft 487 kts 305°
2026-05-05 01:00 34.53167 -119.68338 32030 ft 488 kts 305°
2026-05-05 01:01 34.58840 -119.75024 32037 ft 486 kts 304°
2026-05-05 01:01 34.62816 -119.79865 32027 ft 489 kts 303°
2026-05-05 01:02 34.67576 -119.85795 31990 ft 493 kts 303°
2026-05-05 01:02 34.72321 -119.91724 31979 ft 488 kts 303°
2026-05-05 01:03 34.77031 -119.97664 31979 ft 488 kts 303°
2026-05-05 01:03 34.81760 -120.03613 31990 ft 489 kts 304°
2026-05-05 01:04 34.86536 -120.09526 32018 ft 490 kts 304°
2026-05-05 01:04 34.93748 -120.18371 32011 ft 491 kts 304°
2026-05-05 01:05 34.96128 -120.21293 32007 ft 477 kts 305°
2026-05-05 01:05 34.98459 -120.24193 32007 ft 482 kts 303°
2026-05-05 01:05 35.03098 -120.30154 32035 ft 489 kts 304°
2026-05-05 01:06 35.07814 -120.36167 32051 ft 491 kts 305°
2026-05-05 01:06 35.12740 -120.42001 32054 ft 496 kts 308°
2026-05-05 01:07 35.17892 -120.47629 32055 ft 497 kts 309°
2026-05-05 01:07 35.23033 -120.53266 32053 ft 497 kts 309°
2026-05-05 01:08 35.28111 -120.58891 32056 ft 494 kts 310°
2026-05-05 01:08 35.33204 -120.64616 32057 ft 497 kts 310°
2026-05-05 01:09 35.38253 -120.70385 32058 ft 496 kts 310°
2026-05-05 01:09 35.43312 -120.76114 32058 ft 496 kts 310°
2026-05-05 01:10 35.48358 -120.81820 32057 ft 495 kts 313°
2026-05-05 01:10 35.53752 -120.87155 32057 ft 499 kts 318°
2026-05-05 01:11 35.59340 -120.92129 32053 ft 491 kts 319°
2026-05-05 01:11 35.64801 -120.97020 31939 ft 474 kts 318°
2026-05-05 01:12 35.67424 -120.99422 31564 ft 466 kts 318°
2026-05-05 01:12 35.70002 -121.01796 30991 ft 462 kts 317°
2026-05-05 01:12 35.72549 -121.04202 30400 ft 459 kts 317°
2026-05-05 01:12 35.75058 -121.06595 29838 ft 456 kts 317°
2026-05-05 01:13 35.77565 -121.08961 29303 ft 452 kts 317°
2026-05-05 01:13 35.80044 -121.11293 28787 ft 448 kts 320°
2026-05-05 01:13 35.82505 -121.13591 28280 ft 443 kts 321°
2026-05-05 01:13 35.84956 -121.15873 27776 ft 439 kts 321°
2026-05-05 01:14 35.87374 -121.18141 27277 ft 435 kts 321°
2026-05-05 01:14 35.89757 -121.20402 26775 ft 430 kts 321°
2026-05-05 01:14 35.92101 -121.22636 26287 ft 426 kts 321°
2026-05-05 01:14 35.94434 -121.24865 25804 ft 422 kts 321°
2026-05-05 01:15 35.96752 -121.27057 25328 ft 418 kts 322°
2026-05-05 01:15 35.99050 -121.29207 24858 ft 414 kts 322°
2026-05-05 01:15 36.01340 -121.31325 24392 ft 410 kts 323°
2026-05-05 01:15 36.03617 -121.33413 23931 ft 406 kts 323°
2026-05-05 01:16 36.05871 -121.35512 23468 ft 412 kts 323°
2026-05-05 01:16 36.08215 -121.37654 22991 ft 427 kts 325°
2026-05-05 01:16 36.10721 -121.39702 22500 ft 435 kts 328°
2026-05-05 01:16 36.13299 -121.41677 22000 ft 436 kts 328°
2026-05-05 01:17 36.15876 -121.43620 21519 ft 434 kts 328°
2026-05-05 01:17 36.18443 -121.45570 21199 ft 429 kts 328°
2026-05-05 01:17 36.20981 -121.47497 20940 ft 428 kts 328°
2026-05-05 01:17 36.23515 -121.49437 20690 ft 427 kts 326°
2026-05-05 01:18 36.26070 -121.51411 20441 ft 439 kts 328°
2026-05-05 01:18 36.28657 -121.53398 20192 ft 436 kts 328°
2026-05-05 01:18 36.31225 -121.55384 19942 ft 433 kts 328°
2026-05-05 01:18 36.33752 -121.57398 19694 ft 434 kts 327°
2026-05-05 01:19 36.36290 -121.59447 19326 ft 437 kts 327°
2026-05-05 01:19 36.38840 -121.61494 18844 ft 437 kts 328°
2026-05-05 01:19 36.41393 -121.63526 18345 ft 435 kts 327°
2026-05-05 01:19 36.43931 -121.65526 17847 ft 432 kts 328°
2026-05-05 01:20 36.46466 -121.67513 17348 ft 429 kts 328°
2026-05-05 01:20 36.48979 -121.69466 16850 ft 425 kts 328°
2026-05-05 01:20 36.51469 -121.71403 16353 ft 422 kts 328°
2026-05-05 01:20 36.53951 -121.73355 15855 ft 419 kts 328°
2026-05-05 01:21 36.56394 -121.75286 15394 ft 415 kts 328°
2026-05-05 01:21 36.58838 -121.77217 14944 ft 423 kts 329°
2026-05-05 01:21 36.61305 -121.79164 14495 ft 416 kts 328°
2026-05-05 01:21 36.63719 -121.81078 14046 ft 409 kts 328°
2026-05-05 01:22 36.66093 -121.82964 13596 ft 402 kts 328°
2026-05-05 01:22 36.68421 -121.84820 13147 ft 396 kts 328°
2026-05-05 01:22 36.70729 -121.86664 12697 ft 393 kts 328°
2026-05-05 01:22 36.73024 -121.88493 12246 ft 390 kts 328°
2026-05-05 01:23 36.75444 -121.89997 11796 ft 388 kts 339°
2026-05-05 01:23 36.78029 -121.90919 11348 ft 386 kts 347°
2026-05-05 01:23 36.80650 -121.91578 10900 ft 381 kts 349°
2026-05-05 01:23 36.83233 -121.92175 10453 ft 376 kts 350°
2026-05-05 01:24 36.85791 -121.92756 10005 ft 372 kts 350°
2026-05-05 01:24 36.88318 -121.93357 9557 ft 367 kts 349°
2026-05-05 01:24 36.90794 -121.94005 9111 ft 363 kts 348°
2026-05-05 01:24 36.93251 -121.94696 8663 ft 360 kts 347°
2026-05-05 01:25 36.95670 -121.95427 8283 ft 355 kts 346°
2026-05-05 01:25 36.98003 -121.96252 8086 ft 345 kts 344°
2026-05-05 01:25 37.00243 -121.97174 8033 ft 332 kts 341°
2026-05-05 01:25 37.02373 -121.98106 8052 ft 316 kts 341°
2026-05-05 01:26 37.04418 -121.98945 8097 ft 302 kts 342°
2026-05-05 01:26 37.06387 -121.99738 7925 ft 296 kts 342°
2026-05-05 01:26 37.08369 -122.00532 7395 ft 303 kts 342°
2026-05-05 01:26 37.10392 -122.01345 6846 ft 310 kts 342°
2026-05-05 01:27 37.12461 -122.02166 6364 ft 313 kts 342°
2026-05-05 01:27 37.14530 -122.02954 6142 ft 307 kts 343°
2026-05-05 01:27 37.16546 -122.03711 6032 ft 298 kts 343°
2026-05-05 01:27 37.18483 -122.04438 6003 ft 286 kts 343°
2026-05-05 01:28 37.20361 -122.05140 6000 ft 277 kts 343°
2026-05-05 01:28 37.22195 -122.05823 6000 ft 274 kts 343°
2026-05-05 01:28 37.24010 -122.06507 6001 ft 274 kts 343°
2026-05-05 01:28 37.25837 -122.07222 6002 ft 275 kts 342°
2026-05-05 01:29 37.27646 -122.07966 6003 ft 275 kts 341°
2026-05-05 01:29 37.29466 -122.08725 6003 ft 275 kts 341°
2026-05-05 01:29 37.31285 -122.09482 6004 ft 275 kts 341°
2026-05-05 01:29 37.33102 -122.10224 6005 ft 274 kts 341°
2026-05-05 01:30 37.34911 -122.10942 6005 ft 273 kts 342°
2026-05-05 01:30 37.36747 -122.11641 5924 ft 278 kts 343°
2026-05-05 01:30 37.38606 -122.12309 5783 ft 277 kts 343°
2026-05-05 01:30 37.40451 -122.12956 5634 ft 274 kts 344°
2026-05-05 01:31 37.42272 -122.13593 5486 ft 272 kts 344°
2026-05-05 01:31 37.44095 -122.14214 5338 ft 271 kts 345°
2026-05-05 01:31 37.45925 -122.14803 5073 ft 274 kts 345°
2026-05-05 01:31 37.47778 -122.15391 4670 ft 278 kts 345°
2026-05-05 01:32 37.49671 -122.15991 4277 ft 281 kts 345°
2026-05-05 01:32 37.51554 -122.16589 4081 ft 275 kts 344°
2026-05-05 01:32 37.53246 -122.17532 3973 ft 258 kts 326°
2026-05-05 01:32 37.54517 -122.18977 4005 ft 235 kts 312°
2026-05-05 01:33 37.55387 -122.20597 4000 ft 212 kts 296°
2026-05-05 01:33 37.55926 -122.22190 4006 ft 186 kts 292°
2026-05-05 01:33 37.56432 -122.23612 4004 ft 172 kts 294°
2026-05-05 01:33 37.56936 -122.24963 3883 ft 171 kts 295°
2026-05-05 01:34 37.57475 -122.26317 3544 ft 174 kts 295°
2026-05-05 01:34 37.58007 -122.27671 3140 ft 170 kts 294°
2026-05-05 01:34 37.58551 -122.28999 2559 ft 176 kts 297°
2026-05-05 01:34 37.59156 -122.30398 1851 ft 188 kts 297°
2026-05-05 01:35 37.59780 -122.31883 1231 ft 193 kts 297°
2026-05-05 01:35 37.60393 -122.33376 707 ft 191 kts 296°
2026-05-05 01:35 37.60994 -122.34835 308 ft 184 kts 297°
2026-05-05 01:35 37.61567 -122.36219 46 ft 170 kts 297°
2026-05-05 01:36 37.62060 -122.37392 27 ft 118 kts 296°
2026-05-05 01:36 37.62333 -122.38046 27 ft 64 kts 297°
2026-05-05 01:36 37.62498 -122.38441 27 ft 43 kts 298°
2026-05-05 01:36 37.62620 -122.38730 27 ft 23 kts 297°
2026-05-05 01:37 37.62703 -122.38832 27 ft 13 kts 342°
2026-05-05 01:37 37.62789 -122.38841 27 ft 12 kts 341°
2026-05-05 01:37 37.62836 -122.38906 27 ft 10 kts 300°
2026-05-05 01:37 37.62875 -122.38986 27 ft 11 kts 300°
2026-05-05 01:38 37.62916 -122.39085 27 ft 13 kts 301°
2026-05-05 01:38 37.62992 -122.39147 27 ft 14 kts 337°
2026-05-05 01:38 37.63070 -122.39185 27 ft 11 kts 360°
2026-05-05 01:38 37.63118 -122.39126 27 ft 10 kts 64°
2026-05-05 01:39 37.63161 -122.39068 27 ft 9 kts
2026-05-05 01:39 37.63227 -122.39096 27 ft 9 kts 342°
2026-05-05 01:39 37.63294 -122.39074 27 ft 11 kts 36°
2026-05-05 01:39 37.63357 -122.39005 27 ft 12 kts 43°
2026-05-05 01:40 37.63431 -122.38931 27 ft 15 kts 40°
2026-05-05 01:40 37.63500 -122.38847 27 ft 11 kts 46°
2026-05-05 01:40 37.63568 -122.38821 27 ft 11 kts 338°
2026-05-05 01:40 37.63631 -122.38855 27 ft 11 kts 338°
2026-05-05 01:41 37.63695 -122.38901 27 ft 10 kts 306°
2026-05-05 01:41 37.63741 -122.38914 27 ft 6 kts 43°
2026-05-05 01:41 37.63733 -122.38869 27 ft 2 kts 138°
2026-05-05 01:41 37.63724 -122.38840 27 ft 3 kts 88°
2026-05-05 01:42 37.63724 -122.38834 27 ft 0 kts 83°